Time,TemperatureF,DewpointF,PressureIn,WindDirection,WindDirectionDegrees,WindSpeedMPH,WindSpeedGustMPH,Humidity,HourlyPrecipIn,Conditions,Clouds,dailyrainin,SoftwareType,DateUTC
2013-01-09 00:00:00,49.1,46.0,29.51,ESE,112,1.0,2.0,88,0.00,,,0.00,Rainwise IP-100,2013-01-09 05:00:00,
2013-01-09 00:01:00,48.9,46.0,29.51,ESE,112,2.0,2.0,88,0.00,,,0.00,Rainwise IP-100,2013-01-09 05:01:00,
2013-01-09 00:02:00,48.7,46.0,29.51,ESE,112,1.0,2.0,88,0.00,,,0.00,Rainwise IP-100,2013-01-09 05:02:00,
2013-01-09 00:07:00,48.4,46.0,29.50,ESE,112,1.0,2.0,90,0.00,,,0.00,Rainwise IP-100,2013-01-09 05:07:00,
2013-01-09 00:12:00,48.1,46.0,29.50,ESE,112,0.0,2.0,90,0.00,,,0.00,Rainwise IP-100,2013-01-09 05:12:00,
2013-01-09 00:17:00,47.7,45.0,29.50,ESE,112,0.0,2.0,91,0.00,,,0.00,Rainwise IP-100,2013-01-09 05:17:00,
2013-01-09 00:22:00,47.3,45.0,29.49,SE,135,1.0,2.0,92,0.00,,,0.00,Rainwise IP-100,2013-01-09 05:22:00,
2013-01-09 00:27:00,46.9,45.0,29.49,SE,135,1.0,2.0,93,0.00,,,0.00,Rainwise IP-100,2013-01-09 05:27:00,
2013-01-09 00:32:00,46.6,45.0,29.48,SE,135,0.0,2.0,94,0.00,,,0.00,Rainwise IP-100,2013-01-09 05:32:00,
2013-01-09 00:37:00,46.3,44.0,29.47,SE,135,0.0,1.0,94,0.00,,,0.00,Rainwise IP-100,2013-01-09 05:37:00,
2013-01-09 00:42:00,46.2,44.0,29.47,SE,135,0.0,0.0,95,0.00,,,0.00,Rainwise IP-100,2013-01-09 05:42:00,
2013-01-09 00:47:00,45.9,45.0,29.47,SE,135,0.0,0.0,96,0.00,,,0.00,Rainwise IP-100,2013-01-09 05:47:00,
2013-01-09 00:52:00,45.7,45.0,29.47,SE,135,0.0,0.0,97,0.00,,,0.00,Rainwise IP-100,2013-01-09 05:52:00,
2013-01-09 00:57:00,45.5,45.0,29.47,SE,135,0.0,0.0,97,0.00,,,0.00,Rainwise IP-100,2013-01-09 05:57:00,
2013-01-09 01:02:00,45.2,44.0,29.46,SE,135,0.0,0.0,97,0.00,,,0.00,Rainwise IP-100,2013-01-09 06:02:00,
2013-01-09 01:07:00,44.9,44.0,29.46,SE,135,0.0,0.0,96,0.00,,,0.00,Rainwise IP-100,2013-01-09 06:07:00,
2013-01-09 01:12:00,44.8,44.0,29.46,SE,135,0.0,0.0,96,0.00,,,0.00,Rainwise IP-100,2013-01-09 06:12:00,
2013-01-09 01:17:00,44.5,44.0,29.45,SE,135,0.0,0.0,96,0.00,,,0.00,Rainwise IP-100,2013-01-09 06:17:00,
2013-01-09 01:22:00,44.2,43.0,29.45,SE,135,0.0,0.0,96,0.00,,,0.00,Rainwise IP-100,2013-01-09 06:22:00,
2013-01-09 01:27:00,44.0,43.0,29.45,SE,135,0.0,0.0,96,0.00,,,0.00,Rainwise IP-100,2013-01-09 06:27:00,
2013-01-09 01:32:00,43.9,43.0,29.46,SE,135,0.0,0.0,96,0.00,,,0.00,Rainwise IP-100,2013-01-09 06:32:00,
2013-01-09 01:37:00,44.0,43.0,29.46,SE,135,0.0,0.0,96,0.00,,,0.00,Rainwise IP-100,2013-01-09 06:37:00,
2013-01-09 01:42:00,44.1,43.0,29.46,SE,135,0.0,0.0,96,0.00,,,0.00,Rainwise IP-100,2013-01-09 06:42:00,
2013-01-09 01:47:00,44.1,43.0,29.46,SE,135,0.0,0.0,96,0.00,,,0.00,Rainwise IP-100,2013-01-09 06:47:00,
2013-01-09 01:52:00,43.9,43.0,29.46,SE,135,0.0,0.0,96,0.00,,,0.00,Rainwise IP-100,2013-01-09 06:52:00,
2013-01-09 01:57:00,43.8,43.0,29.46,SE,135,0.0,0.0,96,0.00,,,0.00,Rainwise IP-100,2013-01-09 06:57:00,
2013-01-09 02:02:00,43.8,43.0,29.47,SE,135,1.0,2.0,96,0.00,,,0.00,Rainwise IP-100,2013-01-09 07:02:00,
2013-01-09 02:07:00,43.9,43.0,29.46,East,90,0.0,2.0,96,0.00,,,0.00,Rainwise IP-100,2013-01-09 07:07:00,
2013-01-09 02:12:00,43.8,43.0,29.47,SE,135,0.0,2.0,96,0.00,,,0.00,Rainwise IP-100,2013-01-09 07:12:00,
2013-01-09 02:17:00,44.0,43.0,29.47,NE,45,2.0,0.0,96,0.00,,,0.00,Rainwise IP-100,2013-01-09 07:17:00,
2013-01-09 02:22:00,44.2,43.0,29.47,NE,45,0.0,2.0,96,0.00,,,0.00,Rainwise IP-100,2013-01-09 07:22:00,
2013-01-09 02:27:00,44.5,44.0,29.47,NW,315,0.0,2.0,96,0.00,,,0.00,Rainwise IP-100,2013-01-09 07:27:00,
2013-01-09 02:32:00,44.5,44.0,29.48,NW,315,0.0,1.0,96,0.00,,,0.00,Rainwise IP-100,2013-01-09 07:32:00,
2013-01-09 02:37:00,44.6,44.0,29.48,NW,315,0.0,2.0,96,0.00,,,0.00,Rainwise IP-100,2013-01-09 07:37:00,
2013-01-09 02:42:00,44.5,44.0,29.48,NW,315,0.0,0.0,96,0.00,,,0.00,Rainwise IP-100,2013-01-09 07:42:00,
2013-01-09 02:47:00,44.5,44.0,29.48,NW,315,0.0,0.0,96,0.00,,,0.00,Rainwise IP-100,2013-01-09 07:47:00,
2013-01-09 02:52:00,44.4,43.0,29.48,NW,315,0.0,0.0,96,0.00,,,0.00,Rainwise IP-100,2013-01-09 07:52:00,
2013-01-09 02:57:00,44.2,43.0,29.48,NW,315,0.0,0.0,96,0.00,,,0.00,Rainwise IP-100,2013-01-09 07:57:00,
2013-01-09 03:02:00,44.3,43.0,29.48,NW,315,0.0,0.0,96,0.00,,,0.00,Rainwise IP-100,2013-01-09 08:02:00,
2013-01-09 03:07:00,44.5,44.0,29.48,NE,45,2.0,2.0,96,0.00,,,0.00,Rainwise IP-100,2013-01-09 08:07:00,
2013-01-09 03:12:00,44.4,43.0,29.48,ENE,67,0.0,2.0,96,0.00,,,0.00,Rainwise IP-100,2013-01-09 08:12:00,
2013-01-09 03:17:00,44.3,43.0,29.48,ENE,67,1.0,2.0,96,0.00,,,0.00,Rainwise IP-100,2013-01-09 08:17:00,
2013-01-09 03:22:00,43.9,43.0,29.47,ENE,67,2.0,2.0,96,0.00,,,0.00,Rainwise IP-100,2013-01-09 08:22:00,
2013-01-09 03:27:00,43.5,43.0,29.47,ENE,67,0.0,2.0,96,0.00,,,0.00,Rainwise IP-100,2013-01-09 08:27:00,
2013-01-09 03:32:00,43.1,42.0,29.47,ENE,67,0.0,2.0,96,0.00,,,0.00,Rainwise IP-100,2013-01-09 08:32:00,
2013-01-09 03:37:00,42.5,42.0,29.47,ENE,67,0.0,0.0,96,0.00,,,0.00,Rainwise IP-100,2013-01-09 08:37:00,
2013-01-09 03:42:00,42.3,41.0,29.47,ENE,67,0.0,0.0,96,0.00,,,0.00,Rainwise IP-100,2013-01-09 08:42:00,
2013-01-09 03:47:00,42.0,41.0,29.47,ENE,67,0.0,0.0,96,0.00,,,0.00,Rainwise IP-100,2013-01-09 08:47:00,
2013-01-09 03:52:00,41.6,41.0,29.47,ENE,67,0.0,0.0,96,0.00,,,0.00,Rainwise IP-100,2013-01-09 08:52:00,
2013-01-09 03:58:00,41.4,40.0,29.46,ENE,67,0.0,0.0,96,0.00,,,0.00,Rainwise IP-100,2013-01-09 08:58:00,
2013-01-09 04:03:00,41.5,41.0,29.46,ENE,67,0.0,2.0,96,0.00,,,0.00,Rainwise IP-100,2013-01-09 09:03:00,
2013-01-09 04:08:00,41.6,41.0,29.46,ENE,67,0.0,0.0,96,0.00,,,0.00,Rainwise IP-100,2013-01-09 09:08:00,
2013-01-09 04:13:00,41.7,41.0,29.46,ENE,67,0.0,0.0,96,0.00,,,0.00,Rainwise IP-100,2013-01-09 09:13:00,
2013-01-09 04:18:00,41.8,41.0,29.46,ENE,67,0.0,0.0,96,0.00,,,0.00,Rainwise IP-100,2013-01-09 09:18:00,
2013-01-09 04:23:00,41.7,41.0,29.46,ENE,67,0.0,0.0,96,0.00,,,0.00,Rainwise IP-100,2013-01-09 09:23:00,
2013-01-09 04:28:00,41.6,41.0,29.46,ENE,67,0.0,0.0,96,0.00,,,0.00,Rainwise IP-100,2013-01-09 09:28:00,
2013-01-09 04:33:00,41.2,40.0,29.46,ENE,67,1.0,1.0,96,0.00,,,0.00,Rainwise IP-100,2013-01-09 09:33:00,
2013-01-09 04:38:00,41.0,40.0,29.46,ENE,67,1.0,2.0,96,0.00,,,0.00,Rainwise IP-100,2013-01-09 09:38:00,
2013-01-09 04:43:00,41.0,40.0,29.46,ENE,67,0.0,2.0,96,0.00,,,0.00,Rainwise IP-100,2013-01-09 09:43:00,
2013-01-09 04:48:00,40.9,40.0,29.45,SE,135,2.0,2.0,96,0.00,,,0.00,Rainwise IP-100,2013-01-09 09:48:00,
2013-01-09 04:53:00,40.9,40.0,29.45,SE,135,0.0,2.0,96,0.00,,,0.00,Rainwise IP-100,2013-01-09 09:53:00,
2013-01-09 04:58:00,40.9,40.0,29.45,SE,135,2.0,2.0,96,0.00,,,0.00,Rainwise IP-100,2013-01-09 09:58:00,
2013-01-09 05:03:00,40.6,40.0,29.45,SE,135,2.0,2.0,96,0.00,,,0.00,Rainwise IP-100,2013-01-09 10:03:00,
2013-01-09 05:08:00,40.5,40.0,29.44,SE,135,2.0,2.0,96,0.00,,,0.00,Rainwise IP-100,2013-01-09 10:08:00,
2013-01-09 05:13:00,40.6,40.0,29.45,South,180,0.0,2.0,96,0.00,,,0.00,Rainwise IP-100,2013-01-09 10:13:00,
2013-01-09 05:18:00,40.4,39.0,29.45,SW,225,0.0,0.0,96,0.00,,,0.00,Rainwise IP-100,2013-01-09 10:18:00,
2013-01-09 05:23:00,40.0,39.0,29.45,WNW,292,1.0,2.0,96,0.00,,,0.00,Rainwise IP-100,2013-01-09 10:23:00,
2013-01-09 05:28:00,39.9,39.0,29.45,West,270,1.0,2.0,96,0.00,,,0.00,Rainwise IP-100,2013-01-09 10:28:00,
2013-01-09 05:33:00,39.9,39.0,29.45,West,270,1.0,2.0,96,0.00,,,0.00,Rainwise IP-100,2013-01-09 10:33:00,
2013-01-09 05:38:00,40.1,39.0,29.45,West,270,0.0,2.0,96,0.00,,,0.00,Rainwise IP-100,2013-01-09 10:38:00,
2013-01-09 05:43:00,39.9,39.0,29.45,West,270,0.0,1.0,96,0.00,,,0.00,Rainwise IP-100,2013-01-09 10:43:00,
2013-01-09 05:48:00,39.7,39.0,29.45,West,270,0.0,1.0,96,0.00,,,0.00,Rainwise IP-100,2013-01-09 10:48:00,
2013-01-09 05:53:00,39.5,39.0,29.45,West,270,0.0,0.0,96,0.00,,,0.00,Rainwise IP-100,2013-01-09 10:53:00,
2013-01-09 05:58:00,39.1,38.0,29.45,West,270,0.0,0.0,96,0.00,,,0.00,Rainwise IP-100,2013-01-09 10:58:00,
2013-01-09 06:03:00,39.1,38.0,29.45,West,270,0.0,2.0,96,0.00,,,0.00,Rainwise IP-100,2013-01-09 11:03:00,
2013-01-09 06:08:00,39.1,38.0,29.45,West,270,0.0,1.0,96,0.00,,,0.00,Rainwise IP-100,2013-01-09 11:08:00,
2013-01-09 06:13:00,38.9,38.0,29.45,West,270,0.0,0.0,96,0.00,,,0.00,Rainwise IP-100,2013-01-09 11:13:00,
2013-01-09 06:18:00,38.8,38.0,29.45,West,270,0.0,0.0,96,0.00,,,0.00,Rainwise IP-100,2013-01-09 11:18:00,
2013-01-09 06:23:00,38.6,38.0,29.45,West,270,0.0,0.0,96,0.00,,,0.00,Rainwise IP-100,2013-01-09 11:23:00,
2013-01-09 06:28:00,38.6,38.0,29.45,West,270,0.0,0.0,96,0.00,,,0.00,Rainwise IP-100,2013-01-09 11:28:00,
2013-01-09 06:33:00,38.5,38.0,29.45,West,270,0.0,0.0,96,0.00,,,0.00,Rainwise IP-100,2013-01-09 11:33:00,
2013-01-09 06:38:00,38.2,37.0,29.45,West,270,0.0,0.0,96,0.00,,,0.00,Rainwise IP-100,2013-01-09 11:38:00,
2013-01-09 06:43:00,38.0,37.0,29.45,West,270,0.0,0.0,96,0.00,,,0.00,Rainwise IP-100,2013-01-09 11:43:00,
2013-01-09 06:48:00,38.2,37.0,29.44,SW,225,0.0,1.0,96,0.00,,,0.00,Rainwise IP-100,2013-01-09 11:48:00,
2013-01-09 06:53:00,38.2,37.0,29.44,SW,225,0.0,1.0,96,0.00,,,0.00,Rainwise IP-100,2013-01-09 11:53:00,
2013-01-09 06:58:00,38.1,37.0,29.45,SSW,202,0.0,1.0,96,0.00,,,0.00,Rainwise IP-100,2013-01-09 11:58:00,
2013-01-09 07:03:00,37.9,37.0,29.44,South,180,0.0,0.0,95,0.00,,,0.00,Rainwise IP-100,2013-01-09 12:03:00,
2013-01-09 07:08:00,37.8,37.0,29.44,South,180,0.0,0.0,95,0.00,,,0.00,Rainwise IP-100,2013-01-09 12:08:00,
2013-01-09 07:13:00,37.7,37.0,29.45,South,180,0.0,0.0,95,0.00,,,0.00,Rainwise IP-100,2013-01-09 12:13:00,
2013-01-09 07:18:00,37.5,37.0,29.45,South,180,0.0,0.0,95,0.00,,,0.00,Rainwise IP-100,2013-01-09 12:18:00,
2013-01-09 07:23:00,37.3,36.0,29.45,South,180,0.0,0.0,95,0.00,,,0.00,Rainwise IP-100,2013-01-09 12:23:00,
2013-01-09 07:28:00,36.9,36.0,29.44,South,180,0.0,0.0,95,0.00,,,0.00,Rainwise IP-100,2013-01-09 12:28:00,
2013-01-09 07:33:00,36.9,36.0,29.45,South,180,0.0,0.0,95,0.00,,,0.00,Rainwise IP-100,2013-01-09 12:33:00,
2013-01-09 07:38:00,37.0,36.0,29.45,South,180,0.0,0.0,95,0.00,,,0.00,Rainwise IP-100,2013-01-09 12:38:00,
2013-01-09 07:43:00,37.2,36.0,29.45,SSW,202,0.0,0.0,95,0.00,,,0.00,Rainwise IP-100,2013-01-09 12:43:00,
2013-01-09 07:48:00,37.1,36.0,29.45,SSW,202,0.0,0.0,95,0.00,,,0.00,Rainwise IP-100,2013-01-09 12:48:00,
2013-01-09 07:53:00,37.1,36.0,29.45,SSW,202,0.0,0.0,95,0.00,,,0.00,Rainwise IP-100,2013-01-09 12:53:00,
2013-01-09 07:58:00,37.4,36.0,29.45,SSW,202,0.0,0.0,95,0.00,,,0.00,Rainwise IP-100,2013-01-09 12:58:00,
2013-01-09 08:03:00,37.8,37.0,29.46,SSW,202,0.0,0.0,95,0.00,,,0.00,Rainwise IP-100,2013-01-09 13:03:00,
2013-01-09 08:08:00,38.1,37.0,29.47,SSW,202,0.0,0.0,96,0.00,,,0.00,Rainwise IP-100,2013-01-09 13:08:00,
2013-01-09 08:13:00,38.5,38.0,29.48,SSW,202,1.0,1.0,96,0.00,,,0.00,Rainwise IP-100,2013-01-09 13:13:00,
2013-01-09 08:18:00,39.0,38.0,29.49,SSW,202,1.0,1.0,96,0.00,,,0.00,Rainwise IP-100,2013-01-09 13:18:00,
2013-01-09 08:23:00,39.7,39.0,29.50,SSW,202,1.0,2.0,96,0.00,,,0.00,Rainwise IP-100,2013-01-09 13:23:00,
2013-01-09 08:28:00,40.8,40.0,29.51,South,180,0.0,2.0,96,0.00,,,0.00,Rainwise IP-100,2013-01-09 13:28:00,
2013-01-09 08:33:00,41.8,41.0,29.52,South,180,0.0,2.0,96,0.00,,,0.00,Rainwise IP-100,2013-01-09 13:33:00,
2013-01-09 08:38:00,42.7,42.0,29.53,South,180,0.0,0.0,96,0.00,,,0.00,Rainwise IP-100,2013-01-09 13:38:00,
2013-01-09 08:43:00,43.1,42.0,29.55,South,180,0.0,0.0,95,0.00,,,0.00,Rainwise IP-100,2013-01-09 13:43:00,
2013-01-09 08:48:00,43.4,41.0,29.56,South,180,0.0,0.0,94,0.00,,,0.00,Rainwise IP-100,2013-01-09 13:48:00,
2013-01-09 08:53:00,44.3,43.0,29.57,South,180,0.0,0.0,96,0.00,,,0.00,Rainwise IP-100,2013-01-09 13:53:00,
2013-01-09 08:58:00,45.5,44.0,29.58,South,180,0.0,0.0,93,0.00,,,0.00,Rainwise IP-100,2013-01-09 13:58:00,
2013-01-09 09:03:00,46.6,43.0,29.58,South,180,0.0,0.0,86,0.00,,,0.00,Rainwise IP-100,2013-01-09 14:03:00,
2013-01-09 09:08:00,47.2,43.0,29.59,South,180,0.0,0.0,87,0.00,,,0.00,Rainwise IP-100,2013-01-09 14:08:00,
2013-01-09 09:13:00,48.3,43.0,29.60,South,180,0.0,0.0,83,0.00,,,0.00,Rainwise IP-100,2013-01-09 14:13:00,
2013-01-09 09:18:00,49.2,44.0,29.61,South,180,0.0,2.0,82,0.00,,,0.00,Rainwise IP-100,2013-01-09 14:18:00,
2013-01-09 09:23:00,49.8,43.0,29.62,ESE,112,1.0,1.0,79,0.00,,,0.00,Rainwise IP-100,2013-01-09 14:23:00,
2013-01-09 09:28:00,50.5,43.0,29.62,East,90,2.0,2.0,77,0.00,,,0.00,Rainwise IP-100,2013-01-09 14:28:00,
2013-01-09 09:33:00,50.6,44.0,29.62,ENE,67,1.0,2.0,78,0.00,,,0.00,Rainwise IP-100,2013-01-09 14:33:00,
2013-01-09 09:38:00,51.3,44.0,29.63,ENE,67,2.0,2.0,76,0.00,,,0.00,Rainwise IP-100,2013-01-09 14:38:00,
2013-01-09 09:43:00,51.9,44.0,29.63,NNE,22,3.0,3.0,74,0.00,,,0.00,Rainwise IP-100,2013-01-09 14:43:00,
2013-01-09 09:48:00,52.9,44.0,29.64,NE,45,4.0,6.0,72,0.00,,,0.00,Rainwise IP-100,2013-01-09 14:48:00,
2013-01-09 09:53:00,53.7,44.0,29.64,North,360,1.0,5.0,71,0.00,,,0.00,Rainwise IP-100,2013-01-09 14:53:00,
2013-01-09 09:58:00,54.9,45.0,29.64,NNE,22,2.0,4.0,68,0.00,,,0.00,Rainwise IP-100,2013-01-09 14:58:00,
2013-01-09 10:03:00,55.3,45.0,29.65,NE,45,1.0,4.0,68,0.00,,,0.00,Rainwise IP-100,2013-01-09 15:03:00,
2013-01-09 10:08:00,55.9,45.0,29.65,NE,45,2.0,3.0,67,0.00,,,0.00,Rainwise IP-100,2013-01-09 15:08:00,
2013-01-09 10:13:00,56.9,46.0,29.66,NW,315,2.0,2.0,66,0.00,,,0.00,Rainwise IP-100,2013-01-09 15:13:00,
2013-01-09 10:18:00,56.9,46.0,29.67,North,360,2.0,5.0,67,0.00,,,0.00,Rainwise IP-100,2013-01-09 15:18:00,
2013-01-09 10:23:00,57.3,46.0,29.68,NNE,22,1.0,3.0,65,0.00,,,0.00,Rainwise IP-100,2013-01-09 15:23:00,
2013-01-09 10:28:00,57.6,47.0,29.68,NW,315,2.0,3.0,66,0.00,,,0.00,Rainwise IP-100,2013-01-09 15:28:00,
2013-01-09 10:33:00,57.6,47.0,29.68,NW,315,2.0,6.0,67,0.00,,,0.00,Rainwise IP-100,2013-01-09 15:33:00,
2013-01-09 10:38:00,58.1,47.5,29.69,NNE,22,2.0,4.0,67,0.00,,,0.00,Rainwise IP-100,2013-01-09 15:38:00,
2013-01-09 10:43:00,59.2,47.0,29.69,NNE,22,1.0,3.0,64,0.00,,,0.00,Rainwise IP-100,2013-01-09 15:43:00,
2013-01-09 10:48:00,60.4,47.5,29.70,NW,315,2.0,3.0,62,0.00,,,0.00,Rainwise IP-100,2013-01-09 15:48:00,
2013-01-09 10:53:00,60.5,47.5,29.70,NW,315,0.0,2.0,63,0.00,,,0.00,Rainwise IP-100,2013-01-09 15:53:00,
2013-01-09 10:58:00,60.7,47.5,29.70,NNW,337,1.0,2.0,63,0.00,,,0.00,Rainwise IP-100,2013-01-09 15:58:00,
2013-01-09 11:03:00,61.3,48.0,29.70,NW,315,2.0,2.0,62,0.00,,,0.00,Rainwise IP-100,2013-01-09 16:03:00,
2013-01-09 11:08:00,61.9,48.0,29.71,NNW,337,2.0,2.0,60,0.00,,,0.00,Rainwise IP-100,2013-01-09 16:08:00,
2013-01-09 11:13:00,62.9,47.5,29.71,NE,45,2.0,2.0,57,0.00,,,0.00,Rainwise IP-100,2013-01-09 16:13:00,
2013-01-09 11:18:00,63.6,47.5,29.71,NE,45,2.0,2.0,56,0.00,,,0.00,Rainwise IP-100,2013-01-09 16:18:00,
2013-01-09 11:23:00,64.3,48.0,29.71,NE,45,2.0,2.0,55,0.00,,,0.00,Rainwise IP-100,2013-01-09 16:23:00,
2013-01-09 11:28:00,63.6,48.0,29.71,ESE,112,2.0,2.0,57,0.00,,,0.00,Rainwise IP-100,2013-01-09 16:28:00,
2013-01-09 11:33:00,64.4,48.0,29.71,NE,45,1.0,2.0,55,0.00,,,0.00,Rainwise IP-100,2013-01-09 16:33:00,
2013-01-09 11:38:00,65.1,47.5,29.71,NNE,22,1.0,3.0,54,0.00,,,0.00,Rainwise IP-100,2013-01-09 16:38:00,
2013-01-09 11:43:00,65.5,47.5,29.70,NE,45,1.0,2.0,53,0.00,,,0.00,Rainwise IP-100,2013-01-09 16:43:00,
2013-01-09 11:48:00,66.4,48.0,29.70,NE,45,0.0,2.0,52,0.00,,,0.00,Rainwise IP-100,2013-01-09 16:48:00,
2013-01-09 11:53:00,66.5,48.0,29.70,East,90,4.0,4.0,52,0.00,,,0.00,Rainwise IP-100,2013-01-09 16:53:00,
2013-01-09 11:58:00,65.6,48.0,29.70,SE,135,3.0,5.0,54,0.00,,,0.00,Rainwise IP-100,2013-01-09 16:58:00,
2013-01-09 12:03:00,65.3,48.0,29.69,East,90,2.0,6.0,54,0.00,,,0.00,Rainwise IP-100,2013-01-09 17:03:00,
2013-01-09 12:08:00,65.9,49.0,29.69,SE,135,4.0,4.0,54,0.00,,,0.00,Rainwise IP-100,2013-01-09 17:08:00,
2013-01-09 12:13:00,65.8,49.0,29.68,South,180,1.0,5.0,54,0.00,,,0.00,Rainwise IP-100,2013-01-09 17:13:00,
2013-01-09 12:18:00,66.4,48.0,29.68,SSW,202,2.0,2.0,53,0.00,,,0.00,Rainwise IP-100,2013-01-09 17:18:00,
2013-01-09 12:23:00,66.6,49.0,29.68,SW,225,2.0,4.0,53,0.00,,,0.00,Rainwise IP-100,2013-01-09 17:23:00,
2013-01-09 12:28:00,66.8,48.0,29.68,South,180,2.0,6.0,52,0.00,,,0.00,Rainwise IP-100,2013-01-09 17:28:00,
2013-01-09 12:33:00,67.1,49.0,29.68,South,180,2.0,5.0,52,0.00,,,0.00,Rainwise IP-100,2013-01-09 17:33:00,
2013-01-09 12:38:00,67.2,48.0,29.68,ESE,112,1.0,4.0,51,0.00,,,0.00,Rainwise IP-100,2013-01-09 17:38:00,
2013-01-09 12:43:00,67.6,48.0,29.68,SW,225,2.0,3.0,50,0.00,,,0.00,Rainwise IP-100,2013-01-09 17:43:00,
2013-01-09 12:48:00,67.7,49.0,29.68,South,180,1.0,4.0,51,0.00,,,0.00,Rainwise IP-100,2013-01-09 17:48:00,
2013-01-09 12:53:00,67.7,49.0,29.68,SSW,202,1.0,6.0,51,0.00,,,0.00,Rainwise IP-100,2013-01-09 17:53:00,
2013-01-09 12:58:00,67.9,49.0,29.67,WSW,247,6.0,9.0,51,0.00,,,0.00,Rainwise IP-100,2013-01-09 17:58:00,
2013-01-09 13:03:00,67.9,49.0,29.67,SW,225,6.0,11.0,51,0.00,,,0.00,Rainwise IP-100,2013-01-09 18:03:00,
2013-01-09 13:08:00,67.8,49.0,29.67,WSW,247,4.0,11.0,50,0.00,,,0.00,Rainwise IP-100,2013-01-09 18:08:00,
2013-01-09 13:13:00,68.1,49.0,29.67,SSW,202,2.0,6.0,51,0.00,,,0.00,Rainwise IP-100,2013-01-09 18:13:00,
2013-01-09 13:18:00,68.3,49.0,29.67,SW,225,2.0,8.0,50,0.00,,,0.00,Rainwise IP-100,2013-01-09 18:18:00,
2013-01-09 13:23:00,68.4,49.0,29.67,SSW,202,4.0,7.0,50,0.00,,,0.00,Rainwise IP-100,2013-01-09 18:23:00,
2013-01-09 13:28:00,68.7,48.0,29.66,SSE,157,3.0,6.0,49,0.00,,,0.00,Rainwise IP-100,2013-01-09 18:28:00,
2013-01-09 13:33:00,69.1,49.0,29.67,SW,225,2.0,5.0,49,0.00,,,0.00,Rainwise IP-100,2013-01-09 18:33:00,
2013-01-09 13:38:00,69.1,49.0,29.67,SW,225,5.0,8.0,49,0.00,,,0.00,Rainwise IP-100,2013-01-09 18:38:00,
2013-01-09 13:41:00,69.2,49.0,29.67,SW,225,2.0,8.0,48,0.00,,,0.00,Rainwise IP-100,2013-01-09 18:41:00,
2013-01-09 13:44:00,69.1,49.0,29.67,SW,225,6.0,6.0,49,0.00,,,0.00,Rainwise IP-100,2013-01-09 18:44:00,
2013-01-09 13:48:00,68.9,48.0,29.66,West,270,1.0,7.0,48,0.00,,,0.00,Rainwise IP-100,2013-01-09 18:48:00,
2013-01-09 13:53:00,68.7,48.0,29.66,WSW,247,4.0,6.0,49,0.00,,,0.00,Rainwise IP-100,2013-01-09 18:53:00,
2013-01-09 13:58:00,68.9,49.0,29.66,West,270,3.0,6.0,49,0.00,,,0.00,Rainwise IP-100,2013-01-09 18:58:00,
2013-01-09 14:03:00,69.0,49.0,29.66,SW,225,2.0,4.0,49,0.00,,,0.00,Rainwise IP-100,2013-01-09 19:03:00,
2013-01-09 14:08:00,69.0,49.0,29.66,SW,225,4.0,4.0,49,0.00,,,0.00,Rainwise IP-100,2013-01-09 19:08:00,
2013-01-09 14:13:00,69.2,50.0,29.67,West,270,2.0,4.0,50,0.00,,,0.00,Rainwise IP-100,2013-01-09 19:13:00,
2013-01-09 14:18:00,69.1,50.0,29.66,WNW,292,4.0,5.0,50,0.00,,,0.00,Rainwise IP-100,2013-01-09 19:18:00,
2013-01-09 14:23:00,68.9,50.0,29.66,West,270,1.0,5.0,51,0.00,,,0.00,Rainwise IP-100,2013-01-09 19:23:00,
2013-01-09 14:28:00,68.9,50.0,29.66,West,270,2.0,5.0,51,0.00,,,0.00,Rainwise IP-100,2013-01-09 19:28:00,
2013-01-09 14:30:00,68.9,50.0,29.66,West,270,1.0,5.0,51,0.00,,,0.00,Rainwise IP-100,2013-01-09 19:30:00,
2013-01-09 14:35:00,68.9,50.0,29.66,West,270,2.0,4.0,51,0.00,,,0.00,Rainwise IP-100,2013-01-09 19:35:00,
2013-01-09 14:40:00,68.9,50.0,29.66,West,270,2.0,5.0,51,0.00,,,0.00,Rainwise IP-100,2013-01-09 19:40:00,
2013-01-09 14:45:00,68.4,50.0,29.66,WNW,292,2.0,6.0,52,0.00,,,0.00,Rainwise IP-100,2013-01-09 19:45:00,
2013-01-09 14:50:00,68.3,50.0,29.66,NW,315,2.0,5.0,51,0.00,,,0.00,Rainwise IP-100,2013-01-09 19:50:00,
2013-01-09 14:55:00,68.2,50.0,29.66,NW,315,3.0,4.0,52,0.00,,,0.00,Rainwise IP-100,2013-01-09 19:55:00,
2013-01-09 15:00:00,68.1,50.0,29.66,NW,315,3.0,4.0,52,0.00,,,0.00,Rainwise IP-100,2013-01-09 20:00:00,
2013-01-09 15:05:00,67.9,50.0,29.66,NW,315,2.0,4.0,52,0.00,,,0.00,Rainwise IP-100,2013-01-09 20:05:00,
2013-01-09 15:10:00,67.9,50.0,29.65,NW,315,3.0,4.0,52,0.00,,,0.00,Rainwise IP-100,2013-01-09 20:10:00,
2013-01-09 15:15:00,67.9,50.0,29.65,NW,315,1.0,4.0,52,0.00,,,0.00,Rainwise IP-100,2013-01-09 20:15:00,
2013-01-09 15:20:00,68.1,50.0,29.65,NW,315,2.0,4.0,52,0.00,,,0.00,Rainwise IP-100,2013-01-09 20:20:00,
2013-01-09 15:25:00,68.1,50.5,29.65,WNW,292,2.0,3.0,53,0.00,,,0.00,Rainwise IP-100,2013-01-09 20:25:00,
2013-01-09 15:30:00,68.1,50.0,29.66,West,270,2.0,4.0,52,0.00,,,0.00,Rainwise IP-100,2013-01-09 20:30:00,
2013-01-09 15:35:00,68.1,50.5,29.65,West,270,2.0,2.0,53,0.00,,,0.00,Rainwise IP-100,2013-01-09 20:35:00,
2013-01-09 15:40:00,68.1,50.5,29.65,West,270,2.0,2.0,53,0.00,,,0.00,Rainwise IP-100,2013-01-09 20:40:00,
2013-01-09 15:45:00,67.9,50.5,29.65,WNW,292,1.0,3.0,53,0.00,,,0.00,Rainwise IP-100,2013-01-09 20:45:00,
2013-01-09 15:50:00,67.7,50.5,29.65,WNW,292,1.0,3.0,54,0.00,,,0.00,Rainwise IP-100,2013-01-09 20:50:00,
2013-01-09 15:55:00,67.6,50.5,29.65,NW,315,1.0,3.0,54,0.00,,,0.00,Rainwise IP-100,2013-01-09 20:55:00,
2013-01-09 16:00:00,67.5,50.5,29.65,NW,315,2.0,3.0,55,0.00,,,0.00,Rainwise IP-100,2013-01-09 21:00:00,
2013-01-09 16:05:00,67.4,50.5,29.65,NW,315,1.0,4.0,55,0.00,,,0.00,Rainwise IP-100,2013-01-09 21:05:00,
2013-01-09 16:10:00,67.3,50.5,29.65,NW,315,1.0,3.0,55,0.00,,,0.00,Rainwise IP-100,2013-01-09 21:10:00,
2013-01-09 16:15:00,67.2,51.0,29.65,NW,315,1.0,2.0,56,0.00,,,0.00,Rainwise IP-100,2013-01-09 21:15:00,
2013-01-09 16:20:00,67.1,51.0,29.65,NW,315,1.0,2.0,56,0.00,,,0.00,Rainwise IP-100,2013-01-09 21:20:00,
2013-01-09 16:25:00,66.9,51.0,29.65,NW,315,1.0,2.0,57,0.00,,,0.00,Rainwise IP-100,2013-01-09 21:25:00,
2013-01-09 16:30:00,66.8,51.0,29.65,NW,315,2.0,2.0,57,0.00,,,0.00,Rainwise IP-100,2013-01-09 21:30:00,
2013-01-09 16:35:00,66.7,51.0,29.64,NW,315,1.0,2.0,57,0.00,,,0.00,Rainwise IP-100,2013-01-09 21:35:00,
2013-01-09 16:40:00,66.6,51.0,29.64,NW,315,0.0,2.0,58,0.00,,,0.00,Rainwise IP-100,2013-01-09 21:40:00,
2013-01-09 16:45:00,66.4,51.0,29.64,NW,315,0.0,0.0,59,0.00,,,0.00,Rainwise IP-100,2013-01-09 21:45:00,
2013-01-09 16:50:00,66.3,51.0,29.64,NW,315,0.0,0.0,59,0.00,,,0.00,Rainwise IP-100,2013-01-09 21:50:00,
2013-01-09 16:55:00,66.1,51.0,29.64,NW,315,0.0,0.0,59,0.00,,,0.00,Rainwise IP-100,2013-01-09 21:55:00,
2013-01-09 17:00:00,65.9,51.0,29.64,NW,315,0.0,0.0,60,0.00,,,0.00,Rainwise IP-100,2013-01-09 22:00:00,
2013-01-09 17:05:00,65.5,51.0,29.64,NW,315,0.0,0.0,61,0.00,,,0.00,Rainwise IP-100,2013-01-09 22:05:00,
2013-01-09 17:10:00,65.1,51.0,29.63,NW,315,0.0,0.0,62,0.00,,,0.00,Rainwise IP-100,2013-01-09 22:10:00,
2013-01-09 17:15:00,64.9,51.0,29.63,NW,315,0.0,0.0,62,0.00,,,0.00,Rainwise IP-100,2013-01-09 22:15:00,
2013-01-09 17:20:00,64.7,51.0,29.63,NW,315,0.0,0.0,63,0.00,,,0.00,Rainwise IP-100,2013-01-09 22:20:00,
2013-01-09 17:25:00,64.4,52.0,29.63,NW,315,0.0,0.0,64,0.00,,,0.00,Rainwise IP-100,2013-01-09 22:25:00,
2013-01-09 17:30:00,64.1,52.0,29.63,NW,315,0.0,0.0,65,0.00,,,0.00,Rainwise IP-100,2013-01-09 22:30:00,
2013-01-09 17:35:00,63.7,53.0,29.63,NW,315,1.0,2.0,68,0.00,,,0.00,Rainwise IP-100,2013-01-09 22:35:00,
2013-01-09 17:40:00,63.2,53.5,29.63,NW,315,0.0,1.0,71,0.00,,,0.00,Rainwise IP-100,2013-01-09 22:40:00,
2013-01-09 17:45:00,62.9,53.5,29.63,NW,315,0.0,0.0,70,0.00,,,0.00,Rainwise IP-100,2013-01-09 22:45:00,
2013-01-09 17:50:00,62.8,54.0,29.62,NW,315,0.0,0.0,72,0.00,,,0.00,Rainwise IP-100,2013-01-09 22:50:00,
2013-01-09 17:55:00,62.6,54.0,29.63,NW,315,3.0,4.0,73,0.00,,,0.00,Rainwise IP-100,2013-01-09 22:55:00,
2013-01-09 18:00:00,62.2,53.5,29.63,NW,315,0.0,3.0,73,0.00,,,0.00,Rainwise IP-100,2013-01-09 23:00:00,
2013-01-09 18:05:00,62.1,53.0,29.63,NW,315,0.0,1.0,72,0.00,,,0.00,Rainwise IP-100,2013-01-09 23:05:00,
2013-01-09 18:10:00,61.9,53.5,29.63,NW,315,0.0,1.0,74,0.00,,,0.00,Rainwise IP-100,2013-01-09 23:10:00,
2013-01-09 18:15:00,61.9,53.5,29.63,NW,315,0.0,0.0,74,0.00,,,0.00,Rainwise IP-100,2013-01-09 23:15:00,
2013-01-09 18:20:00,61.9,53.5,29.63,NW,315,1.0,1.0,74,0.00,,,0.00,Rainwise IP-100,2013-01-09 23:20:00,
2013-01-09 18:25:00,61.9,53.0,29.63,NW,315,1.0,2.0,72,0.00,,,0.00,Rainwise IP-100,2013-01-09 23:25:00,
2013-01-09 18:30:00,62.1,53.0,29.63,NW,315,0.0,1.0,72,0.00,,,0.00,Rainwise IP-100,2013-01-09 23:30:00,
2013-01-09 18:35:00,61.9,53.0,29.63,NW,315,0.0,0.0,72,0.00,,,0.00,Rainwise IP-100,2013-01-09 23:35:00,
2013-01-09 18:40:00,61.9,52.0,29.63,NW,315,0.0,0.0,70,0.00,,,0.00,Rainwise IP-100,2013-01-09 23:40:00,
2013-01-09 18:45:00,61.9,53.0,29.62,NW,315,0.0,0.0,71,0.00,,,0.00,Rainwise IP-100,2013-01-09 23:45:00,
2013-01-09 18:50:00,61.6,53.5,29.62,NW,315,0.0,0.0,74,0.00,,,0.00,Rainwise IP-100,2013-01-09 23:50:00,
2013-01-09 18:55:00,61.1,53.5,29.62,NW,315,1.0,1.0,75,0.00,,,0.00,Rainwise IP-100,2013-01-09 23:55:00,
2013-01-09 19:00:00,60.7,53.0,29.62,NW,315,0.0,2.0,75,0.00,,,0.00,Rainwise IP-100,2013-01-10 00:00:00,
2013-01-09 19:05:00,60.3,53.0,29.62,NW,315,0.0,0.0,76,0.00,,,0.00,Rainwise IP-100,2013-01-10 00:05:00,
2013-01-09 19:10:00,59.9,53.0,29.62,NW,315,0.0,0.0,77,0.00,,,0.00,Rainwise IP-100,2013-01-10 00:10:00,
2013-01-09 19:15:00,59.5,53.5,29.62,NW,315,0.0,0.0,80,0.00,,,0.00,Rainwise IP-100,2013-01-10 00:15:00,
2013-01-09 19:20:00,59.1,53.0,29.61,NW,315,0.0,0.0,80,0.00,,,0.00,Rainwise IP-100,2013-01-10 00:20:00,
2013-01-09 19:25:00,58.8,53.5,29.61,NW,315,0.0,0.0,81,0.00,,,0.00,Rainwise IP-100,2013-01-10 00:25:00,
2013-01-09 19:30:00,58.5,53.5,29.61,NW,315,0.0,0.0,81,0.00,,,0.00,Rainwise IP-100,2013-01-10 00:30:00,
2013-01-09 19:35:00,58.3,53.0,29.60,NW,315,0.0,0.0,81,0.00,,,0.00,Rainwise IP-100,2013-01-10 00:35:00,
2013-01-09 19:40:00,58.3,52.0,29.60,SSW,202,1.0,2.0,80,0.00,,,0.00,Rainwise IP-100,2013-01-10 00:40:00,
2013-01-09 19:45:00,58.4,52.0,29.60,SSW,202,0.0,2.0,80,0.00,,,0.00,Rainwise IP-100,2013-01-10 00:45:00,
2013-01-09 19:50:00,58.3,53.0,29.60,SSW,202,0.0,0.0,81,0.00,,,0.00,Rainwise IP-100,2013-01-10 00:50:00,
2013-01-09 19:55:00,57.8,53.5,29.60,SSW,202,0.0,0.0,83,0.00,,,0.00,Rainwise IP-100,2013-01-10 00:55:00,
2013-01-09 20:00:00,57.4,53.0,29.59,SSW,202,0.0,0.0,84,0.00,,,0.00,Rainwise IP-100,2013-01-10 01:00:00,
2013-01-09 20:05:00,57.2,52.0,29.59,SSW,202,0.0,0.0,84,0.00,,,0.00,Rainwise IP-100,2013-01-10 01:05:00,
2013-01-09 20:10:00,57.0,53.0,29.58,SSW,202,0.0,0.0,85,0.00,,,0.00,Rainwise IP-100,2013-01-10 01:10:00,
2013-01-09 20:15:00,56.9,53.0,29.58,SSW,202,0.0,0.0,86,0.00,,,0.00,Rainwise IP-100,2013-01-10 01:15:00,
2013-01-09 20:20:00,56.7,52.0,29.58,SSW,202,0.0,1.0,85,0.00,,,0.00,Rainwise IP-100,2013-01-10 01:20:00,
2013-01-09 20:25:00,56.6,53.0,29.58,SSW,202,0.0,0.0,86,0.00,,,0.00,Rainwise IP-100,2013-01-10 01:25:00,
2013-01-09 20:30:00,56.4,52.0,29.58,SSW,202,0.0,0.0,85,0.00,,,0.00,Rainwise IP-100,2013-01-10 01:30:00,
2013-01-09 20:35:00,56.4,53.0,29.58,SSW,202,0.0,0.0,86,0.00,,,0.00,Rainwise IP-100,2013-01-10 01:35:00,
2013-01-09 20:40:00,56.3,53.0,29.58,SSW,202,0.0,0.0,87,0.00,,,0.00,Rainwise IP-100,2013-01-10 01:40:00,
2013-01-09 20:45:00,56.1,52.0,29.57,SSW,202,0.0,0.0,87,0.00,,,0.00,Rainwise IP-100,2013-01-10 01:45:00,
2013-01-09 20:50:00,56.1,53.0,29.57,SSW,202,0.0,0.0,88,0.00,,,0.00,Rainwise IP-100,2013-01-10 01:50:00,
2013-01-09 20:55:00,55.9,53.0,29.57,SE,135,0.0,0.0,89,0.00,,,0.00,Rainwise IP-100,2013-01-10 01:55:00,
2013-01-09 21:00:00,55.8,53.0,29.57,SE,135,0.0,0.0,89,0.00,,,0.00,Rainwise IP-100,2013-01-10 02:00:00,
2013-01-09 21:05:00,55.7,53.0,29.57,SE,135,0.0,0.0,89,0.00,,,0.00,Rainwise IP-100,2013-01-10 02:05:00,
2013-01-09 21:10:00,55.6,53.5,29.57,SE,135,2.0,2.0,90,0.00,,,0.00,Rainwise IP-100,2013-01-10 02:10:00,
2013-01-09 21:15:00,55.4,53.0,29.57,SE,135,0.0,2.0,90,0.00,,,0.00,Rainwise IP-100,2013-01-10 02:15:00,
2013-01-09 21:20:00,55.3,53.0,29.56,SE,135,0.0,0.0,91,0.00,,,0.00,Rainwise IP-100,2013-01-10 02:20:00,
2013-01-09 21:25:00,55.3,53.0,29.57,SE,135,0.0,0.0,91,0.00,,,0.00,Rainwise IP-100,2013-01-10 02:25:00,
2013-01-09 21:30:00,55.5,53.5,29.57,SE,135,0.0,0.0,90,0.00,,,0.00,Rainwise IP-100,2013-01-10 02:30:00,
2013-01-09 21:35:00,55.7,53.5,29.58,SE,135,0.0,0.0,91,0.00,,,0.00,Rainwise IP-100,2013-01-10 02:35:00,
2013-01-09 21:40:00,55.6,53.5,29.58,ESE,112,0.0,0.0,91,0.00,,,0.00,Rainwise IP-100,2013-01-10 02:40:00,
2013-01-09 21:45:00,55.3,53.0,29.59,East,90,1.0,2.0,92,0.00,,,0.00,Rainwise IP-100,2013-01-10 02:45:00,
2013-01-09 21:50:00,55.3,53.0,29.59,East,90,1.0,2.0,91,0.00,,,0.00,Rainwise IP-100,2013-01-10 02:50:00,
2013-01-09 21:55:00,55.3,53.0,29.59,East,90,0.0,1.0,91,0.00,,,0.00,Rainwise IP-100,2013-01-10 02:55:00,
2013-01-09 22:00:00,55.4,53.0,29.59,East,90,0.0,0.0,91,0.00,,,0.00,Rainwise IP-100,2013-01-10 03:00:00,
2013-01-09 22:05:00,55.4,53.0,29.60,East,90,0.0,0.0,91,0.00,,,0.00,Rainwise IP-100,2013-01-10 03:05:00,
2013-01-09 22:10:00,55.3,53.0,29.60,East,90,0.0,0.0,91,0.00,,,0.00,Rainwise IP-100,2013-01-10 03:10:00,
2013-01-09 22:15:00,55.3,53.0,29.60,East,90,2.0,2.0,91,0.00,,,0.00,Rainwise IP-100,2013-01-10 03:15:00,
2013-01-09 22:20:00,55.2,53.0,29.60,East,90,0.0,2.0,91,0.00,,,0.00,Rainwise IP-100,2013-01-10 03:20:00,
2013-01-09 22:25:00,55.2,53.0,29.60,East,90,0.0,0.0,91,0.00,,,0.00,Rainwise IP-100,2013-01-10 03:25:00,
2013-01-09 22:30:00,55.1,53.0,29.60,East,90,0.0,0.0,91,0.00,,,0.00,Rainwise IP-100,2013-01-10 03:30:00,
2013-01-09 22:35:00,54.7,52.0,29.60,East,90,0.0,1.0,91,0.00,,,0.00,Rainwise IP-100,2013-01-10 03:35:00,
2013-01-09 22:40:00,54.3,53.0,29.60,East,90,2.0,2.0,93,0.00,,,0.00,Rainwise IP-100,2013-01-10 03:40:00,
2013-01-09 22:45:00,53.9,52.0,29.60,East,90,1.0,2.0,93,0.00,,,0.00,Rainwise IP-100,2013-01-10 03:45:00,
2013-01-09 22:50:00,53.7,52.0,29.60,SE,135,2.0,2.0,94,0.00,,,0.00,Rainwise IP-100,2013-01-10 03:50:00,
2013-01-09 22:55:00,53.7,52.0,29.60,SE,135,0.0,2.0,95,0.00,,,0.00,Rainwise IP-100,2013-01-10 03:55:00,
2013-01-09 23:00:00,53.8,52.0,29.60,SE,135,0.0,0.0,94,0.00,,,0.00,Rainwise IP-100,2013-01-10 04:00:00,
2013-01-09 23:05:00,53.9,52.0,29.60,South,180,2.0,2.0,94,0.00,,,0.00,Rainwise IP-100,2013-01-10 04:05:00,
2013-01-09 23:10:00,54.1,52.0,29.60,South,180,0.0,2.0,94,0.00,,,0.00,Rainwise IP-100,2013-01-10 04:10:00,
2013-01-09 23:15:00,53.8,52.0,29.60,South,180,0.0,0.0,94,0.00,,,0.00,Rainwise IP-100,2013-01-10 04:15:00,
2013-01-09 23:20:00,53.5,52.0,29.61,South,180,0.0,0.0,95,0.00,,,0.00,Rainwise IP-100,2013-01-10 04:20:00,
2013-01-09 23:25:00,53.3,52.0,29.61,South,180,0.0,0.0,95,0.00,,,0.00,Rainwise IP-100,2013-01-10 04:25:00,
2013-01-09 23:30:00,53.3,52.0,29.61,South,180,1.0,2.0,96,0.00,,,0.00,Rainwise IP-100,2013-01-10 04:30:00,
2013-01-09 23:35:00,53.3,52.0,29.60,South,180,0.0,1.0,96,0.00,,,0.00,Rainwise IP-100,2013-01-10 04:35:00,
2013-01-09 23:40:00,53.2,51.0,29.61,South,180,0.0,0.0,95,0.00,,,0.00,Rainwise IP-100,2013-01-10 04:40:00,
2013-01-09 23:45:00,53.3,52.0,29.61,South,180,0.0,0.0,96,0.00,,,0.00,Rainwise IP-100,2013-01-10 04:45:00,
2013-01-09 23:50:00,53.2,51.0,29.61,South,180,0.0,0.0,95,0.00,,,0.00,Rainwise IP-100,2013-01-10 04:50:00,
2013-01-09 23:55:00,53.1,51.0,29.61,East,90,2.0,2.0,95,0.00,,,0.00,Rainwise IP-100,2013-01-10 04:55:00,